Location: ??????
(55.7522°N, 37.6156°E)
Time: 16:41:13
(UTC+00:00)

Cosmos 1908 Rocket - Pass Details

Date: 14 June 2025
Orbit: 601 x 625 km, 82.5° (Epoch: 12 July)

Event Time Altitude Azimuth Distance (km) Brightness Sun altitude
Rises 20:17:35 0° 351° (N) 2,878 9.2 -9.5°
Reaches altitude 10° 20:19:53 10° 358° (N) 1,973 7.6 -9.5°
Maximum altitude 20:24:05 45° 71° (ENE) 846 4.3 -9.7°
Enters shadow 20:28:02 11° 143° (SE) 1,881 5.5 -9.8°
